When you browse on this site, cookies collect data to enhance your experience and personalize the content and advertising you see.
Visit our Privacy Policy to learn more. By continuing to use the site, you agree to this use of cookies and data.
  • In Latvia
  • List of Countries
  • For 7 days
  • Water Temperature
  • Satellite Maps
  • Weather Map
  • Weather Widgets
  • user-avatar
    Login

    Hourly Weather Wohlen

    Today, 20 July, Saturday

    Time Temperature Precipitation Wind Pressure Humidity
    00:00 +16°C° 0 mm 0 mps 721 mmHg 88%
    01:00 +16°C° 0 mm 0 mps 721 mmHg 91%
    02:00 +16°C° 0 mm 0 mps 721 mmHg 91%
    03:00 +15°C° 0 mm 0 mps 721 mmHg 92%
    04:00 +15°C° 0 mm 0 mps 721 mmHg 92%
    05:00 +16°C° 0 mm 0 mps 721 mmHg 88%
    06:00 +17°C° 0 mm 0 mps 721 mmHg 85%
    07:00 +19°C° 0 mm 0 mps 721 mmHg 78%
    08:00 +21°C° 0 mm 0 mps 722 mmHg 70%
    09:00 +26°C° 0 mm 1 mps 722 mmHg 61%
    10:00 +28°C° 0 mm 1 mps 722 mmHg 52%
    11:00 +30°C° 0 mm 2 mps 722 mmHg 47%
    12:00 +31°C° 0 mm 3 mps 722 mmHg 42%
    13:00 +33°C° 0 mm 5 mps 723 mmHg 36%
    14:00 +33°C° 0 mm 4 mps 723 mmHg 36%
    15:00 +32°C° 0 mm 4 mps 723 mmHg 37%
    16:00 +32°C° 0 mm 4 mps 723 mmHg 38%
    17:00 +30°C° 0 mm 3 mps 723 mmHg 47%
    18:00 +28°C° 0 mm 2 mps 723 mmHg 56%
    19:00 +26°C° 0 mm 1 mps 723 mmHg 66%
    20:00 +25°C° 0.3 mm 1 mps 723 mmHg 72%
    21:00 +23°C° 0.3 mm 1 mps 723 mmHg 78%
    22:00 +21°C° 0.3 mm 1 mps 723 mmHg 84%
    23:00 +21°C° 0.1 mm 1 mps 724 mmHg 86%

    Tomorrow, 21 July, Sunday

    Time Temperature Precipitation Wind Pressure Humidity
    00:00 +20°C° 0.1 mm 1 mps 724 mmHg 88%
    01:00 +18°C° 0.1 mm 0 mps 724 mmHg 90%
    02:00 +20°C° 0.9 mm 1 mps 724 mmHg 92%
    03:00 +19°C° 0.9 mm 1 mps 724 mmHg 94%
    04:00 +19°C° 0.9 mm 1 mps 724 mmHg 95%
    05:00 +19°C° 0.6 mm 1 mps 724 mmHg 95%
    06:00 +20°C° 0.6 mm 1 mps 724 mmHg 94%
    07:00 +20°C° 0.6 mm 1 mps 725 mmHg 93%
    08:00 +22°C° 0.4 mm 1 mps 725 mmHg 88%
    09:00 +23°C° 0.4 mm 1 mps 726 mmHg 82%
    10:00 +25°C° 0.4 mm 1 mps 726 mmHg 76%
    11:00 +25°C° 0.5 mm 2 mps 726 mmHg 72%
    12:00 +26°C° 0.5 mm 2 mps 726 mmHg 68%
    13:00 +27°C° 0.5 mm 2 mps 726 mmHg 64%
    14:00 +27°C° 0.2 mm 2 mps 726 mmHg 62%
    15:00 +28°C° 0.2 mm 2 mps 726 mmHg 60%
    16:00 +28°C° 0.2 mm 2 mps 726 mmHg 57%
    17:00 +27°C° 0.1 mm 1 mps 726 mmHg 63%
    18:00 +26°C° 0.1 mm 1 mps 726 mmHg 68%
    19:00 +25°C° 0.1 mm 1 mps 726 mmHg 73%
    20:00 +23°C° 0 mm 1 mps 727 mmHg 77%
    21:00 +22°C° 0 mm 1 mps 727 mmHg 81%
    22:00 +18°C° 0 mm 0 mps 727 mmHg 84%
    23:00 +17°C° 0 mm 0 mps 727 mmHg 87%

    Day after tomorrow, 22 July, Monday

    Time Temperature Precipitation Wind Pressure Humidity
    00:00 +17°C° 0 mm 0 mps 727 mmHg 89%
    01:00 +16°C° 0 mm 0 mps 727 mmHg 92%
    02:00 +16°C° 0 mm 0 mps 727 mmHg 92%
    03:00 +16°C° 0 mm 0 mps 727 mmHg 93%
    04:00 +15°C° 0 mm 0 mps 727 mmHg 94%
    05:00 +16°C° 0 mm 0 mps 727 mmHg 92%
    06:00 +17°C° 0 mm 0 mps 727 mmHg 89%
    07:00 +18°C° 0 mm 0 mps 727 mmHg 87%
    08:00 +21°C° 0 mm 0 mps 727 mmHg 78%
    09:00 +23°C° 0 mm 0 mps 728 mmHg 69%
    10:00 +28°C° 0 mm 1 mps 728 mmHg 60%
    11:00 +29°C° 0 mm 1 mps 728 mmHg 55%
    12:00 +29°C° 0 mm 0 mps 728 mmHg 51%
    13:00 +30°C° 0 mm 0 mps 728 mmHg 46%
    14:00 +32°C° 0 mm 1 mps 727 mmHg 44%
    15:00 +32°C° 0 mm 1 mps 727 mmHg 42%
    16:00 +31°C° 0 mm 1 mps 727 mmHg 41%
    17:00 +30°C° 0 mm 1 mps 727 mmHg 49%
    18:00 +28°C° 0 mm 1 mps 727 mmHg 58%
    19:00 +26°C° 0 mm 1 mps 726 mmHg 67%
    20:00 +24°C° 0 mm 1 mps 727 mmHg 73%
    21:00 +23°C° 0 mm 1 mps 727 mmHg 79%
    22:00 +21°C° 0 mm 1 mps 727 mmHg 85%
    23:00 +20°C° 0 mm 1 mps 726 mmHg 87%

    23 July, Tuesday

    Time Temperature Precipitation Wind Pressure Humidity
    00:00 +20°C° 0 mm 1 mps 726 mmHg 90%
    01:00 +17°C° 0 mm 0 mps 726 mmHg 92%
    02:00 +17°C° 0 mm 0 mps 725 mmHg 93%
    03:00 +17°C° 0 mm 0 mps 725 mmHg 94%
    04:00 +16°C° 0 mm 0 mps 725 mmHg 94%
    05:00 +17°C° 0 mm 0 mps 725 mmHg 91%
    06:00 +18°C° 0 mm 0 mps 725 mmHg 89%
    07:00 +19°C° 0 mm 0 mps 725 mmHg 86%
    08:00 +23°C° 0 mm 1 mps 725 mmHg 77%
    09:00 +26°C° 0 mm 1 mps 725 mmHg 69%
    10:00 +28°C° 0 mm 1 mps 725 mmHg 60%
    11:00 +30°C° 0 mm 1 mps 725 mmHg 54%
    12:00 +31°C° 0 mm 1 mps 725 mmHg 48%
    13:00 +33°C° 0 mm 1 mps 725 mmHg 42%
    14:00 +33°C° 0 mm 1 mps 725 mmHg 41%
    15:00 +33°C° 0 mm 1 mps 724 mmHg 39%
    16:00 +34°C° 0 mm 1 mps 724 mmHg 38%
    17:00 +32°C° 0 mm 1 mps 724 mmHg 47%
    18:00 +30°C° 0 mm 1 mps 724 mmHg 57%
    19:00 +28°C° 0 mm 1 mps 724 mmHg 66%
    20:00 +26°C° 0 mm 1 mps 724 mmHg 73%
    21:00 +25°C° 0 mm 1 mps 724 mmHg 79%
    22:00 +23°C° 0 mm 1 mps 724 mmHg 85%
    23:00 +22°C° 0 mm 1 mps 724 mmHg 87%

    24 July, Wednesday

    Time Temperature Precipitation Wind Pressure Humidity
    00:00 +20°C° 0 mm 0 mps 723 mmHg 88%
    01:00 +19°C° 0 mm 0 mps 723 mmHg 90%
    02:00 +19°C° 0 mm 0 mps 723 mmHg 91%
    03:00 +18°C° 0 mm 0 mps 723 mmHg 91%
    04:00 +18°C° 0 mm 0 mps 723 mmHg 92%
    05:00 +19°C° 0 mm 0 mps 723 mmHg 89%
    06:00 +20°C° 0 mm 0 mps 723 mmHg 86%
    07:00 +21°C° 0 mm 0 mps 723 mmHg 83%
    08:00 +24°C° 0 mm 0 mps 724 mmHg 74%
    09:00 +26°C° 0 mm 0 mps 724 mmHg 65%
    10:00 +29°C° 0 mm 0 mps 724 mmHg 56%
    11:00 +31°C° 0 mm 0 mps 724 mmHg 51%
    12:00 +32°C° 0 mm 0 mps 724 mmHg 45%
    13:00 +34°C° 0 mm 0 mps 724 mmHg 40%
    14:00 +34°C° 0 mm 0 mps 724 mmHg 39%
    15:00 +35°C° 0 mm 1 mps 723 mmHg 37%
    16:00 +35°C° 0 mm 1 mps 723 mmHg 36%
    17:00 +33°C° 0 mm 1 mps 723 mmHg 45%
    18:00 +31°C° 0 mm 1 mps 723 mmHg 55%
    19:00 +27°C° 0 mm 0 mps 723 mmHg 64%
    20:00 +25°C° 0 mm 0 mps 723 mmHg 68%
    21:00 +26°C° 0 mm 1 mps 723 mmHg 72%
    22:00 +24°C° 0 mm 1 mps 723 mmHg 75%
    23:00 +22°C° 0 mm 0 mps 722 mmHg 78%

    25 July, Thursday

    Time Temperature Precipitation Wind Pressure Humidity
    00:00 +21°C° 0 mm 0 mps 722 mmHg 81%
    01:00 +20°C° 0 mm 0 mps 722 mmHg 84%
    02:00 +20°C° 0 mm 0 mps 722 mmHg 86%
    03:00 +19°C° 0 mm 0 mps 722 mmHg 87%
    04:00 +19°C° 0 mm 0 mps 722 mmHg 88%
    05:00 +20°C° 0 mm 0 mps 722 mmHg 85%
    06:00 +21°C° 0 mm 0 mps 722 mmHg 83%
    07:00 +22°C° 0 mm 0 mps 722 mmHg 80%
    08:00 +24°C° 0 mm 0 mps 722 mmHg 72%
    09:00 +27°C° 0 mm 0 mps 722 mmHg 63%
    10:00 +29°C° 0 mm 0 mps 722 mmHg 55%
    11:00 +31°C° 0 mm 0 mps 722 mmHg 49%
    12:00 +32°C° 0 mm 0 mps 722 mmHg 44%
    13:00 +36°C° 0 mm 1 mps 722 mmHg 38%
    14:00 +36°C° 0 mm 1 mps 722 mmHg 36%
    15:00 +36°C° 0 mm 1 mps 722 mmHg 34%
    16:00 +36°C° 0 mm 1 mps 722 mmHg 33%
    17:00 +34°C° 0 mm 1 mps 721 mmHg 41%
    18:00 +32°C° 0 mm 1 mps 721 mmHg 50%
    19:00 +28°C° 0 mm 0 mps 721 mmHg 58%
    20:00 +26°C° 0 mm 0 mps 721 mmHg 61%
    21:00 +27°C° 0 mm 1 mps 721 mmHg 64%
    22:00 +25°C° 0 mm 1 mps 721 mmHg 67%
    23:00 +25°C° 0 mm 1 mps 721 mmHg 69%
    Show more